Wind_Speed
6 7 8 8 10 11 10 10 10 9 9 9 8 8 9 9 10 11 12 14 15 16 17 18 17 17 12 2 7 13 16 15 13 12 12 8 10 8 6 6 9 9 9 15 11 3 7
6 8 8 9 9 10 11 11 10 9 9 9 9 9 10 11 11 11 13 14 15 16 18 16 15 14 6 7 11 14 14 14 15 12 12 12 6 11 8 13 7 8 14 10 12 7 8
6 8 8 9 10 12 13 12 11 10 9 9 10 10 11 10 10 11 12 15 17 16 17 12 11 8 7 5 9 12 14 14 10 9 9 12 11 6 9 11 6 6 12 9 12 8 8
5 6 8 9 11 12 15 15 12 9 10 10 11 11 11 11 11 13 15 17 17 15 12 10 8 3 5 5 9 11 14 15 13 11 8 10 8 8 4 8 10 5 8 10 12 11 8
4 7 8 9 10 12 14 16 13 9 10 11 11 11 12 12 14 15 17 17 14 11 9 6 4 4 4 7 15 11 9 12 17 7 10 7 4 4 5 3 5 5 4 12 3 11 7
4 5 7 8 10 12 14 17 14 9 10 11 12 12 13 15 16 18 18 13 7 5 6 4 8 4 2 8 17 14 9 10 6 10 5 6 5 3 5 6 7 9 8 9 5 6 2
5 6 7 7 9 11 12 15 15 11 10 12 13 13 15 16 16 16 17 5 4 1 4 2 4 4 7 17 6 6 11 14 6 3 5 1 4 7 9 7 8 9 8 5 7 4 3
6 5 6 7 8 8 10 12 13 13 10 11 12 13 16 16 12 13 9 5 3 2 5 5 5 5 10 3 5 6 18 6 5 6 10 6 7 8 9 9 9 7 12 11 2 7 5
7 6 5 5 7 8 9 10 11 12 13 12 13 14 15 16 7 8 10 5 2 3 4 2 2 3 2 4 5 5 10 8 4 7 8 5 6 8 7 6 13 8 7 7 9 10 8
9 7 6 5 6 7 8 9 11 12 12 14 15 13 14 13 3 7 3 6 4 2 2 3 3 2 2 3 3 2 5 1 4 7 6 2 6 9 10 9 9 4 7 8 9 9 4
10 8 7 5 5 6 7 8 10 11 12 14 15 13 11 10 6 3 5 7 4 2 2 0 3 1 2 3 6 2 1 3 5 7 4 3 5 6 9 6 6 6 8 8 6 7 7
11 9 7 6 6 6 7 7 9 11 13 14 14 11 8 5 3 4 7 6 2 2 4 1 1 2 5 6 2 4 4 3 2 4 5 6 4 2 4 11 8 10 8 8 5 2 2
12 10 10 8 7 6 7 9 9 10 12 14 14 10 6 4 0 7 6 2 3 2 1 1 2 3 5 3 4 3 4 2 3 6 5 7 2 3 2 8 1 11 8 4 4 3 2
14 12 12 8 7 7 7 8 10 10 12 13 13 9 5 2 4 4 3 1 2 0 2 2 2 6 3 3 1 4 4 2 3 5 5 4 6 4 5 3 4 6 4 3 3 3 5
14 13 13 8 7 6 6 7 9 11 12 13 12 6 1 4 1 2 1 1 4 2 2 5 6 3 3 4 3 3 5 2 4 5 3 6 5 2 2 2 4 7 5 4 4 6 2
16 14 13 9 8 7 7 6 8 10 12 13 7 5 3 2 1 2 1 4 2 2 2 2 3 1 4 7 2 7 4 4 3 3 2 1 5 2 1 2 2 2 4 3 3 5 4
18 15 13 13 8 7 8 7 8 8 10 10 3 3 1 1 2 0 2 4 2 1 2 2 4 4 5 1 3 4 4 3 1 4 2 2 3 5 2 4 1 2 1 3 1 2 2
19 16 18 14 10 10 8 5 9 7 7 3 2 3 1 1 0 1 2 1 1 1 2 2 1 3 4 4 4 5 3 5 4 2 4 2 3 4 9 3 4 1 3 3 1 5 3
20 20 17 15 13 10 7 4 7 8 7 2 2 2 0 0 2 3 3 2 2 2 3 2 3 3 4 3 4 6 4 3 2 2 3 1 3 5 3 2 3 3 4 5 3 2 5
22 20 17 16 13 10 6 6 6 6 5 0 2 2 1 2 0 3 4 4 2 1 3 3 3 2 2 4 7 5 4 1 3 3 3 3 4 6 6 9 6 9 8 7 5 3 6
21 18 17 17 13 9 7 7 4 2 4 2 3 1 2 1 3 4 0 3 3 3 3 2 3 6 4 4 6 6 6 5 4 6 4 3 5 6 12 10 10 15 18 16 9 16 8
21 19 19 16 13 10 7 5 3 2 2 3 2 2 2 3 1 4 3 2 4 4 1 4 4 9 6 6 7 11 9 8 7 4 4 5 4 4 10 11 13 19 17 13 14 17 15
22 21 17 14 11 9 7 6 5 4 1 2 1 1 1 0 2 3 1 2 3 5 4 2 4 6 7 6 5 7 7 8 10 10 11 5 4 3 10 6 13 15 10 4 3 7 6
24 19 16 15 13 9 7 7 5 3 3 2 2 1 1 3 3 2 3 4 4 5 4 7 7 5 3 6 7 9 13 16 15 18 12 10 9 4 8 6 5 8 8 5 7 10 8
22 18 17 16 13 10 8 7 5 1 4 3 2 2 1 3 2 3 2 4 6 7 7 7 5 2 7 4 4 5 4 3 9 3 7 6 5 4 3 5 8 13 9 4 2 5 12
20 20 18 17 14 12 10 8 6 2 2 4 4 0 1 1 1 4 3 4 4 3 5 2 2 3 1 3 3 4 4 3 4 2 4 1 3 4 2 5 5 4 3 1 2 5 7
21 20 19 17 14 11 11 10 8 5 4 3 4 2 2 1 2 1 3 3 1 3 4 6 4 4 2 3 4 4 6 7 4 5 4 3 2 6 9 6 6 7 4 1 2 5 11
22 20 17 14 14 13 13 11 9 9 8 8 4 6 3 2 4 2 3 5 6 5 5 3 5 3 1 2 3 3 3 2 2 5 5 4 4 4 4 4 7 6 8 4 12 18 15
22 19 17 16 15 13 13 12 11 10 9 8 3 6 8 4 3 7 13 17 14 9 2 2 2 2 1 3 2 3 3 4 7 8 7 7 4 6 4 6 15 16 15 16 17 16 19
Wind_Direction
26 10 11 9 10 5 3 358 358 2 2 15 11 359 345 336 329 323 321 323 327 332 336 339 340 350 349 300 359 335 336 332 326 337 329 328 339 338 344 287 300 295 271 270 262 141 266
12 14 5 10 7 7 2 357 356 4 9 8 360 349 342 331 325 321 320 320 322 327 329 335 339 344 302 18 339 332 330 329 328 329 328 327 350 332 295 296 281 322 312 266 273 193 253
7 9 0 3 1 9 10 1 5 5 13 7 358 355 349 344 335 328 324 320 318 322 323 329 337 347 273 351 333 329 332 329 322 302 310 314 322 310 306 305 324 285 290 273 254 256 243
355 0 6 -0 1 6 9 9 4 16 11 9 4 3 360 353 344 335 327 320 314 315 317 323 333 342 279 327 338 336 334 330 329 321 280 288 304 293 252 277 311 258 260 264 223 215 233
340 349 357 2 5 5 5 6 4 10 15 8 7 2 354 349 340 332 327 317 309 307 312 313 326 282 299 318 351 332 334 333 324 298 291 262 281 242 312 53 290 205 304 267 155 194 207
311 338 353 358 2 4 5 3 5 3 9 11 7 358 350 343 339 334 333 317 316 309 311 305 262 276 237 339 329 311 320 318 283 288 251 219 213 258 2 4 354 335 333 333 37 29 288
297 328 346 355 359 360 4 6 8 6 1 3 5 358 348 344 341 345 354 351 311 167 286 341 328 283 305 330 307 290 345 307 289 306 346 286 17 8 352 324 310 305 298 43 14 12 279
283 311 332 343 349 358 358 5 7 5 355 348 349 351 354 347 347 3 16 43 50 293 316 197 270 273 269 355 292 352 358 359 320 346 349 11 29 350 312 303 323 315 12 7 28 347 308
268 285 307 328 339 346 352 354 0 2 357 347 340 341 348 351 1 20 54 56 348 342 258 183 247 282 336 337 320 317 7 321 327 342 351 13 356 326 312 10 347 59 25 348 315 306 261
254 266 287 309 327 336 343 348 348 350 351 350 345 340 344 351 35 5 51 348 348 10 286 150 180 161 257 281 259 42 9 334 314 346 340 295 358 347 328 16 356 353 5 329 326 334 357
250 262 269 291 310 324 332 339 342 343 343 344 342 341 348 7 344 3 325 332 331 283 47 198 123 193 198 285 316 161 199 240 327 325 312 343 351 343 330 359 334 293 332 287 293 304 320
241 251 268 284 300 313 322 328 335 341 340 340 341 341 347 8 23 335 329 327 332 17 269 40 302 312 332 185 213 289 212 214 224 286 229 249 114 266 314 304 273 282 292 275 223 264 25
242 243 255 268 280 300 316 325 330 336 339 338 335 335 341 349 265 325 335 293 3 146 153 50 325 352 335 290 312 351 309 43 33 358 340 317 138 147 269 319 296 351 343 356 355 2 218
227 238 247 254 274 293 305 317 325 330 335 335 327 323 320 278 305 341 0 317 257 289 2 123 250 286 231 17 182 294 272 28 108 343 298 357 331 21 353 52 298 298 348 88 314 354 286
230 234 247 249 265 280 295 316 321 328 333 336 327 320 275 286 319 33 317 323 239 20 313 347 294 271 176 174 253 296 291 94 66 22 5 356 302 161 73 356 6 323 40 337 294 273 293
225 230 240 246 256 277 291 311 324 328 335 336 326 281 189 301 93 88 77 248 286 335 315 239 276 156 329 351 325 355 296 86 112 49 352 350 299 14 154 234 226 231 320 7 319 327 324
217 220 241 245 241 261 279 305 312 327 339 335 328 296 264 141 109 162 215 243 297 262 294 281 315 293 278 296 310 296 283 119 88 141 285 289 194 277 259 198 25 250 214 229 202 241 281
209 221 240 234 234 239 250 295 321 341 342 358 292 274 317 160 335 207 250 247 8 247 235 245 262 294 292 343 304 291 255 11 72 13 289 52 297 279 262 54 80 320 303 346 200 303 307
218 229 228 226 230 237 260 290 322 343 11 336 243 251 104 228 231 204 170 261 267 212 241 212 260 203 39 289 309 279 348 95 76 303 318 127 266 306 290 42 19 219 215 202 248 327 243
223 220 225 225 226 235 247 280 299 319 5 261 282 263 141 196 98 318 322 268 251 163 275 299 302 37 231 259 215 264 305 25 128 235 62 2 260 230 237 261 311 293 284 281 261 217 249
213 217 216 218 222 231 241 272 285 313 338 243 218 231 66 232 219 242 223 309 269 276 224 219 252 240 261 273 311 244 239 271 209 165 175 211 255 257 280 297 300 287 280 273 230 252 233
209 210 212 214 214 220 237 262 275 336 285 205 313 315 145 293 92 258 209 276 244 301 122 238 244 320 321 253 267 302 323 314 270 156 205 194 249 304 289 288 276 281 279 253 255 262 255
206 207 208 214 218 204 233 246 261 295 220 213 104 258 80 32 182 258 304 277 50 20 271 23 12 337 300 301 341 310 298 280 262 278 261 220 201 237 276 288 337 299 270 268 245 228 217
206 205 203 201 196 198 216 236 256 305 263 171 141 83 37 265 196 248 21 340 320 313 287 294 327 287 282 350 299 268 253 251 255 256 244 256 274 276 282 299 231 238 288 260 261 268 287
205 193 193 195 192 192 219 227 232 213 28 357 114 102 247 259 64 290 319 295 297 272 245 238 270 341 345 324 292 293 257 226 245 281 258 210 228 265 245 214 280 279 297 49 22 294 294
194 191 193 199 198 185 214 228 228 187 56 21 319 297 347 244 150 79 330 296 288 301 312 218 198 171 302 248 257 243 252 310 267 259 42 65 275 184 260 246 252 34 103 46 294 311 349
189 193 195 192 201 201 210 219 228 227 214 223 290 295 332 262 300 357 232 290 4 299 270 302 339 342 190 255 243 242 246 233 249 241 174 144 172 212 236 263 278 328 98 173 155 302 330
187 190 191 192 190 197 207 222 227 234 229 203 233 242 232 221 288 260 273 269 281 261 259 335 334 225 284 259 269 267 277 294 330 286 313 209 204 198 206 235 288 54 360 357 343 344 346
180 183 182 185 189 202 216 219 221 219 206 212 197 231 237 216 263 253 262 268 277 291 300 202 268 317 297 275 300 344 322 335 325 285 343 299 234 278 274 280 328 10 6 15 7 351 345
Height
848 848 847 845 844 843 841 839 837 835 834 832 831 830 829 828 827 826 824 822 820 818 816 813 810 807 803 799 800 798 795 793 790 788 785 782 779 778 781 775 766 766 762 756 750 759 760
849 848 847 846 844 843 842 840 837 835 834 833 832 830 828 827 826 825 823 821 819 817 815 813 810 808 806 804 800 797 794 792 790 789 786 782 781 779 777 772 769 763 761 755 751 753 754
850 849 848 847 845 843 841 839 837 836 834 833 832 830 828 826 825 823 821 819 817 815 814 812 811 809 808 803 798 796 793 791 789 788 786 783 781 781 778 773 763 764 769 757 753 750 751
850 849 848 847 846 844 842 840 837 836 835 833 831 830 828 827 825 823 820 817 814 813 812 811 810 810 805 799 797 795 792 789 787 785 784 782 782 780 779 770 767 767 766 769 745 748 746
850 850 849 848 846 844 843 841 838 836 834 833 832 830 829 827 825 822 818 814 812 811 811 810 810 809 803 798 796 794 792 789 785 781 780 780 780 777 774 783 790 765 794 767 746 740 744
848 848 848 847 847 845 843 842 839 837 835 833 832 830 829 827 824 821 816 812 810 809 809 809 809 812 800 800 796 793 791 788 785 780 776 780 779 778 775 779 791 779 769 755 751 750 746
849 849 848 847 846 845 844 842 840 838 837 835 832 830 829 826 824 821 815 812 813 813 809 810 809 808 802 801 795 792 789 784 781 775 785 773 788 794 784 777 773 768 763 764 754 749 753
849 848 848 847 846 844 844 842 841 839 837 836 834 831 829 826 824 822 819 820 827 828 820 807 808 807 803 803 800 791 790 790 787 789 782 782 794 785 777 771 770 766 767 769 754 751 752
848 847 846 846 846 845 843 842 840 839 838 836 833 832 829 826 825 825 824 827 826 827 823 807 805 804 804 805 800 795 793 792 790 789 790 791 788 779 775 774 777 774 779 777 774 758 750
846 846 846 845 844 843 843 842 841 840 838 836 834 831 829 826 828 826 827 827 826 826 824 809 805 804 802 801 802 795 795 798 789 793 790 787 782 785 780 780 783 777 774 773 770 772 774
845 846 845 844 843 842 842 841 840 839 838 836 834 831 829 827 829 828 831 827 826 828 838 806 804 801 799 805 800 796 795 794 797 797 795 792 791 793 787 785 782 781 774 775 772 776 773
844 846 846 844 844 842 841 840 839 838 837 836 833 831 829 829 828 830 828 828 828 832 839 812 802 804 802 799 796 793 794 795 791 795 789 788 786 789 789 783 779 775 773 765 767 775 796
844 843 845 843 842 842 841 842 839 837 835 835 833 830 829 828 828 827 828 829 834 835 805 809 808 803 805 802 799 797 798 797 807 817 807 790 785 785 787 787 776 782 785 798 802 799 794
838 840 843 842 843 842 840 839 840 837 835 834 833 831 828 827 827 826 828 828 834 810 805 807 807 806 807 804 798 798 798 800 798 802 810 813 817 790 788 791 797 794 789 814 805 804 796
837 838 843 841 841 841 840 839 837 836 834 832 832 829 828 826 825 826 829 834 827 811 810 810 803 807 798 803 807 799 794 798 802 804 816 814 806 790 789 790 793 791 801 789 797 786 790
832 835 840 840 840 841 841 838 836 834 833 832 832 830 828 826 825 826 830 828 814 813 811 810 812 804 808 803 805 805 795 796 801 803 803 804 819 790 787 790 791 793 792 804 803 802 797
829 833 836 838 837 839 841 838 835 832 831 831 832 831 828 826 825 827 832 821 815 814 813 813 809 809 804 805 805 805 799 800 797 802 803 803 809 802 787 793 789 796 794 794 795 796 801
825 830 833 836 835 837 836 834 836 829 829 831 832 833 828 828 828 823 823 815 821 815 815 813 814 812 810 808 810 807 801 797 798 800 805 806 809 816 796 788 786 788 789 792 806 801 798
822 826 830 833 835 836 836 835 834 832 830 831 830 826 827 828 828 824 817 818 817 815 816 814 812 809 809 812 817 805 800 803 802 804 806 805 811 821 794 796 793 794 786 788 793 801 807
819 822 827 833 833 834 835 835 833 833 830 832 831 826 826 826 824 824 818 814 815 816 817 814 813 812 810 812 808 809 805 800 803 805 808 809 808 808 819 803 795 798 792 792 795 812 792
816 821 825 828 831 833 833 835 832 828 830 834 828 822 825 824 822 823 819 815 816 815 817 815 814 815 812 814 809 806 802 801 802 803 806 810 812 808 802 799 795 791 787 784 797 785 794
814 818 823 824 826 830 833 834 834 829 829 830 828 827 827 823 823 824 819 815 815 811 812 813 818 813 811 815 813 811 807 807 805 808 806 805 813 804 812 795 791 784 774 773 773 770 770
809 815 818 824 827 829 834 835 834 832 829 827 829 829 827 822 823 825 818 814 815 817 810 811 815 817 814 811 812 810 808 805 803 803 800 801 808 804 801 792 793 788 762 759 758 756 754
807 811 816 821 825 828 831 834 834 832 832 829 828 828 828 825 824 821 821 823 819 819 820 814 816 818 810 809 808 804 799 795 794 789 790 793 797 802 801 797 811 766 750 749 752 748 748
805 808 814 819 821 824 830 831 832 830 831 833 828 828 830 827 825 822 822 821 819 817 816 814 812 814 813 811 811 802 792 789 783 782 785 787 795 805 803 800 774 762 750 750 756 755 745
801 806 811 817 819 818 827 830 831 828 830 833 836 832 829 829 823 823 824 823 822 819 815 809 811 812 814 814 809 808 798 784 784 789 792 790 792 801 795 796 779 752 751 749 750 763 749
798 803 809 811 817 820 825 827 829 828 829 832 835 835 833 831 825 824 827 824 822 822 822 816 813 813 814 814 812 807 797 782 781 776 795 797 800 806 801 795 772 753 752 749 763 769 751
796 803 808 811 813 818 821 824 825 828 829 829 832 834 836 833 828 824 824 824 823 823 822 818 820 813 815 816 806 794 788 777 781 774 775 781 791 797 792 791 794 758 760 765 765 756 756
795 802 805 809 812 816 821 822 824 825 825 827 828 829 830 833 828 824 821 822 823 823 824 823 821 820 815 817 811 811 806 801 795 792 780 786 778 777 776 770 759 766 774 781 779 779 770